• In Portugal
  • List of Countries
  • For 7 days
  • Water Temperature
  • Satellite Maps
  • Weather Map
  • Weather Widgets
  • user-avatar
    Login

    Hourly Weather Jastkowice

    Today, 26 September, Wednesday

    Time Temperature Precipitation Wind Pressure Humidity
    00:00 +4°C° 0 mm 3 mps 763 mmHg 70%
    01:00 +4°C° 0 mm 2 mps 763 mmHg 73%
    02:00 +4°C° 0 mm 2 mps 763 mmHg 74%
    03:00 +4°C° 0 mm 2 mps 764 mmHg 76%
    04:00 +3°C° 0 mm 2 mps 764 mmHg 78%
    05:00 +4°C° 0 mm 2 mps 764 mmHg 76%
    06:00 +5°C° 0 mm 2 mps 764 mmHg 74%
    07:00 +5°C° 0 mm 2 mps 764 mmHg 72%
    08:00 +7°C° 0 mm 3 mps 764 mmHg 65%
    09:00 +10°C° 0 mm 3 mps 764 mmHg 58%
    10:00 +12°C° 0 mm 4 mps 764 mmHg 51%
    11:00 +12°C° 0 mm 4 mps 763 mmHg 49%
    12:00 +13°C° 0 mm 4 mps 762 mmHg 46%
    13:00 +14°C° 0 mm 4 mps 762 mmHg 44%
    14:00 +14°C° 0 mm 4 mps 761 mmHg 46%
    15:00 +13°C° 0 mm 3 mps 761 mmHg 47%
    16:00 +13°C° 0 mm 3 mps 760 mmHg 49%
    17:00 +12°C° 0 mm 3 mps 760 mmHg 50%
    18:00 +12°C° 0 mm 3 mps 760 mmHg 50%
    19:00 +11°C° 0 mm 3 mps 759 mmHg 51%
    20:00 +11°C° 0 mm 4 mps 759 mmHg 51%
    21:00 +11°C° 0 mm 4 mps 759 mmHg 51%
    22:00 +10°C° 0 mm 5 mps 759 mmHg 52%
    23:00 +12°C° 0 mm 5 mps 758 mmHg 50%

    Tomorrow, 27 September, Thursday

    Time Temperature Precipitation Wind Pressure Humidity
    00:00 +12°C° 0 mm 5 mps 758 mmHg 48%
    01:00 +11°C° 0 mm 6 mps 757 mmHg 46%
    02:00 +11°C° 0 mm 6 mps 757 mmHg 46%
    03:00 +11°C° 0 mm 6 mps 757 mmHg 46%
    04:00 +11°C° 0 mm 6 mps 757 mmHg 46%
    05:00 +11°C° 0 mm 6 mps 756 mmHg 48%
    06:00 +11°C° 0 mm 6 mps 756 mmHg 51%
    07:00 +11°C° 0 mm 6 mps 756 mmHg 53%
    08:00 +13°C° 0 mm 6 mps 756 mmHg 54%
    09:00 +14°C° 0 mm 6 mps 757 mmHg 55%
    10:00 +15°C° 0 mm 6 mps 757 mmHg 55%
    11:00 +16°C° 0 mm 6 mps 756 mmHg 55%
    12:00 +19°C° 0 mm 6 mps 756 mmHg 54%
    13:00 +20°C° 0 mm 6 mps 756 mmHg 54%
    14:00 +20°C° 0 mm 5 mps 756 mmHg 56%
    15:00 +20°C° 0 mm 5 mps 755 mmHg 59%
    16:00 +20°C° 0 mm 4 mps 755 mmHg 61%
    17:00 +18°C° 0 mm 4 mps 755 mmHg 65%
    18:00 +17°C° 0 mm 3 mps 755 mmHg 70%
    19:00 +14°C° 0 mm 3 mps 755 mmHg 74%
    20:00 +14°C° 0 mm 3 mps 754 mmHg 75%
    21:00 +13°C° 0 mm 3 mps 754 mmHg 75%
    22:00 +12°C° 0 mm 3 mps 754 mmHg 76%
    23:00 +12°C° 0 mm 4 mps 753 mmHg 74%

    Day after tomorrow, 28 September, Friday

    Time Temperature Precipitation Wind Pressure Humidity
    00:00 +12°C° 0 mm 4 mps 753 mmHg 72%
    01:00 +12°C° 0 mm 4 mps 752 mmHg 71%
    02:00 +12°C° 0 mm 4 mps 752 mmHg 70%
    03:00 +12°C° 0 mm 4 mps 751 mmHg 70%
    04:00 +11°C° 0 mm 4 mps 751 mmHg 70%
    05:00 +12°C° 0 mm 4 mps 750 mmHg 68%
    06:00 +12°C° 0 mm 5 mps 750 mmHg 66%
    07:00 +13°C° 0 mm 5 mps 750 mmHg 65%
    08:00 +15°C° 0 mm 5 mps 750 mmHg 59%
    09:00 +17°C° 0 mm 5 mps 750 mmHg 54%
    10:00 +19°C° 0 mm 5 mps 750 mmHg 49%
    11:00 +20°C° 0 mm 5 mps 750 mmHg 46%
    12:00 +21°C° 0 mm 5 mps 749 mmHg 44%
    13:00 +22°C° 0 mm 5 mps 749 mmHg 42%
    14:00 +21°C° 0 mm 5 mps 749 mmHg 46%
    15:00 +20°C° 0 mm 4 mps 749 mmHg 51%
    16:00 +19°C° 0 mm 4 mps 749 mmHg 56%
    17:00 +18°C° 0 mm 3 mps 749 mmHg 63%
    18:00 +16°C° 0 mm 3 mps 749 mmHg 70%
    19:00 +13°C° 0 mm 3 mps 750 mmHg 78%
    20:00 +14°C° 0 mm 2 mps 750 mmHg 79%
    21:00 +13°C° 0 mm 2 mps 750 mmHg 80%
    22:00 +13°C° 0 mm 1 mps 751 mmHg 80%
    23:00 +13°C° 0 mm 2 mps 751 mmHg 78%

    29 September, Saturday

    Time Temperature Precipitation Wind Pressure Humidity
    00:00 +12°C° 0 mm 2 mps 751 mmHg 75%
    01:00 +12°C° 0 mm 2 mps 751 mmHg 72%
    02:00 +12°C° 0 mm 2 mps 751 mmHg 73%
    03:00 +10°C° 0 mm 2 mps 751 mmHg 73%
    04:00 +10°C° 0 mm 2 mps 751 mmHg 74%
    05:00 +10°C° 0 mm 2 mps 751 mmHg 74%
    06:00 +10°C° 0 mm 2 mps 752 mmHg 74%
    07:00 +10°C° 0 mm 2 mps 752 mmHg 74%
    08:00 +11°C° 0.1 mm 3 mps 752 mmHg 70%
    09:00 +11°C° 0.1 mm 3 mps 753 mmHg 67%
    10:00 +12°C° 0.1 mm 3 mps 753 mmHg 63%
    11:00 +13°C° 0 mm 4 mps 753 mmHg 58%
    12:00 +14°C° 0 mm 4 mps 753 mmHg 52%
    13:00 +14°C° 0 mm 4 mps 753 mmHg 47%
    14:00 +14°C° 0 mm 4 mps 754 mmHg 48%
    15:00 +14°C° 0 mm 4 mps 754 mmHg 49%
    16:00 +13°C° 0 mm 4 mps 754 mmHg 49%
    17:00 +12°C° 0 mm 3 mps 754 mmHg 53%
    18:00 +10°C° 0 mm 3 mps 755 mmHg 57%
    19:00 +9°C° 0 mm 3 mps 755 mmHg 60%
    20:00 +8°C° 0 mm 2 mps 756 mmHg 62%
    21:00 +8°C° 0 mm 2 mps 756 mmHg 63%
    22:00 +7°C° 0 mm 2 mps 756 mmHg 64%
    23:00 +7°C° 0 mm 2 mps 756 mmHg 66%

    30 September, Sunday

    Time Temperature Precipitation Wind Pressure Humidity
    00:00 +6°C° 0 mm 2 mps 756 mmHg 68%
    01:00 +6°C° 0 mm 2 mps 757 mmHg 69%
    02:00 +6°C° 0 mm 2 mps 757 mmHg 70%
    03:00 +6°C° 0 mm 1 mps 757 mmHg 72%
    04:00 +6°C° 0 mm 1 mps 757 mmHg 73%
    05:00 +7°C° 0 mm 1 mps 757 mmHg 70%
    06:00 +7°C° 0 mm 1 mps 757 mmHg 68%
    07:00 +8°C° 0 mm 1 mps 757 mmHg 66%
    08:00 +9°C° 0 mm 2 mps 757 mmHg 59%
    09:00 +12°C° 0 mm 2 mps 757 mmHg 52%
    10:00 +13°C° 0 mm 2 mps 756 mmHg 46%
    11:00 +14°C° 0 mm 2 mps 756 mmHg 43%
    12:00 +15°C° 0 mm 2 mps 755 mmHg 41%
    13:00 +16°C° 0 mm 2 mps 755 mmHg 38%
    14:00 +15°C° 0 mm 2 mps 754 mmHg 41%
    15:00 +15°C° 0 mm 2 mps 754 mmHg 44%
    16:00 +15°C° 0 mm 2 mps 754 mmHg 47%
    17:00 +13°C° 0 mm 2 mps 754 mmHg 52%
    18:00 +10°C° 0 mm 2 mps 754 mmHg 58%
    19:00 +9°C° 0 mm 2 mps 754 mmHg 63%
    20:00 +9°C° 0 mm 2 mps 753 mmHg 66%
    21:00 +8°C° 0 mm 2 mps 753 mmHg 68%
    22:00 +8°C° 0 mm 2 mps 753 mmHg 71%
    23:00 +7°C° 0 mm 2 mps 752 mmHg 73%

    1 October, Monday

    Time Temperature Precipitation Wind Pressure Humidity
    00:00 +7°C° 0 mm 2 mps 752 mmHg 75%
    01:00 +7°C° 0 mm 2 mps 751 mmHg 78%
    02:00 +7°C° 0 mm 2 mps 751 mmHg 82%
    03:00 +6°C° 0 mm 2 mps 750 mmHg 85%
    04:00 +7°C° 0 mm 1 mps 750 mmHg 89%
    05:00 +8°C° 0 mm 1 mps 750 mmHg 88%
    06:00 +8°C° 0 mm 1 mps 749 mmHg 87%
    07:00 +9°C° 0 mm 1 mps 749 mmHg 86%
    08:00 +11°C° 0 mm 1 mps 749 mmHg 78%
    09:00 +14°C° 0 mm 2 mps 748 mmHg 69%
    10:00 +16°C° 0 mm 2 mps 748 mmHg 61%
    11:00 +18°C° 0 mm 2 mps 747 mmHg 57%
    12:00 +19°C° 0 mm 2 mps 747 mmHg 53%
    13:00 +20°C° 0 mm 2 mps 746 mmHg 49%
    14:00 +20°C° 0 mm 2 mps 746 mmHg 52%
    15:00 +20°C° 0 mm 2 mps 745 mmHg 55%
    16:00 +20°C° 0 mm 2 mps 745 mmHg 59%
    17:00 +18°C° 0 mm 2 mps 744 mmHg 65%
    18:00 +16°C° 0 mm 2 mps 744 mmHg 71%
    19:00 +14°C° 0 mm 3 mps 744 mmHg 77%
    20:00 +13°C° 0 mm 3 mps 744 mmHg 78%
    21:00 +13°C° 0 mm 3 mps 744 mmHg 79%
    22:00 +13°C° 0 mm 3 mps 743 mmHg 80%
    23:00 +14°C° 0 mm 2 mps 743 mmHg 79%
    Show more